Theta_e
304 304 304 304 303 301 297 295 293 293 294 295 295 295 296 297 299 307 310 314 314 313 313 312 315 318 317 313 314 314 311 313 315 317 319 319 318 324 328 328 336 338 337 337 338
303 304 304 304 303 302 297 293 293 293 295 296 294 294 295 299 309 313 314 312 312 312 313 316 317 317 316 314 312 312 312 314 317 318 318 317 316 319 327 326 339 338 337 338 338
303 303 303 302 302 302 301 296 294 294 294 296 296 294 297 306 313 319 310 312 313 314 313 315 318 316 317 315 314 312 313 314 316 318 318 317 316 318 321 326 338 340 338 337 338
302 302 302 301 302 302 301 297 297 297 297 296 297 294 307 312 317 309 308 308 308 308 311 315 316 315 316 314 313 312 312 314 315 317 317 316 315 318 319 322 337 338 336 336 338
301 301 301 301 301 298 294 295 296 299 299 297 297 295 309 312 312 309 308 307 308 308 309 311 315 316 317 316 314 313 312 313 314 315 316 316 316 318 317 317 320 339 337 337 338
301 301 301 301 297 293 294 296 300 299 298 299 298 298 308 310 308 307 307 308 307 307 307 308 315 315 317 316 317 317 318 314 314 314 315 316 316 317 319 318 318 340 338 336 338
301 300 299 297 292 294 300 302 303 299 301 299 297 304 307 309 307 308 306 306 307 308 306 307 307 311 314 318 318 318 318 317 316 313 315 316 317 317 316 317 317 317 341 338 337
301 300 299 295 293 298 301 303 304 302 305 304 306 306 310 308 307 306 306 305 305 307 308 311 307 306 312 317 318 318 317 318 317 315 315 316 317 317 315 315 316 315 317 341 339
299 299 299 295 295 302 304 305 305 304 306 308 309 310 309 307 307 307 307 306 306 307 309 309 310 305 307 311 314 317 316 316 316 315 315 314 316 316 315 315 316 316 314 319 340
299 300 299 294 301 304 304 306 305 307 306 307 309 308 307 306 308 308 307 307 305 305 307 310 310 304 304 307 313 314 314 311 315 316 317 316 314 315 317 316 316 314 316 317 318
298 298 296 294 302 304 304 306 304 306 304 306 306 306 306 307 309 309 308 308 307 305 305 306 308 312 305 306 311 314 315 315 312 312 316 317 317 316 315 317 316 314 314 317 316
297 296 295 296 303 304 302 303 303 303 306 309 306 306 307 308 309 309 309 307 307 305 305 304 306 308 312 309 309 313 316 316 314 315 316 315 315 317 317 316 316 317 314 315 318
296 296 295 298 303 305 303 302 303 304 306 310 307 308 307 308 308 309 308 308 308 307 305 304 305 307 308 311 311 309 309 314 315 315 315 315 315 315 316 318 316 317 317 315 316
295 296 296 299 304 305 305 304 303 306 311 307 307 309 308 307 307 309 309 308 308 310 310 305 305 306 308 309 310 311 310 311 313 315 316 315 315 316 317 317 315 316 314 313 313
295 295 297 301 303 306 305 305 305 308 300 305 306 307 306 305 305 309 309 308 310 310 310 311 310 306 305 306 310 314 314 312 313 314 314 314 314 316 317 318 316 316 316 316 315
295 298 300 302 303 305 304 306 307 308 299 305 306 305 305 304 305 308 306 307 310 309 309 309 309 309 306 307 308 310 312 314 312 312 313 314 314 314 317 317 317 318 317 317 315
298 301 301 303 305 303 306 307 306 298 306 305 305 306 305 304 306 306 305 305 310 311 310 309 309 309 307 306 307 310 316 318 312 312 315 314 316 315 316 318 318 318 317 317 317
298 301 303 305 304 304 306 307 298 306 306 305 305 306 305 307 307 306 305 305 309 310 310 309 310 310 309 309 312 313 317 319 315 313 315 316 317 316 316 316 317 317 316 316 316
299 304 305 303 304 306 306 303 300 306 304 305 306 305 307 306 306 306 306 309 311 310 313 311 310 309 309 309 311 313 315 313 312 316 316 317 317 316 317 316 316 316 316 317 316
299 304 305 300 303 306 304 308 308 305 304 305 307 307 306 305 307 307 307 311 311 310 310 311 313 309 309 309 310 310 312 313 317 321 320 316 317 317 316 316 316 316 315 315 317
300 304 304 301 305 303 299 304 307 304 304 304 305 305 306 306 306 306 307 309 309 310 308 311 311 308 310 309 309 310 314 315 315 316 316 321 315 314 315 316 317 317 316 316 316
302 301 303 303 299 298 300 307 305 305 303 303 304 305 305 304 305 305 306 305 308 309 309 310 311 312 308 307 309 312 313 314 318 319 318 321 319 314 315 316 317 316 316 316 315
301 301 303 303 301 299 304 306 303 303 303 303 303 302 303 303 304 306 304 304 304 302 305 305 306 307 306 306 308 310 311 312 314 316 319 320 320 315 313 315 316 316 316 315 315
300 299 299 299 297 303 305 304 303 303 301 302 302 302 303 304 304 303 302 303 302 302 307 305 306 308 309 310 310 311 311 311 313 316 316 317 317 313 314 314 313 314 314 314 314
296 299 300 301 294 302 304 304 304 304 303 302 302 303 303 302 302 302 302 301 301 302 301 302 308 308 307 307 307 307 308 308 310 310 312 311 311 310 310 310 310 310 312 312 313
294 300 302 301 303 303 303 300 304 304 302 302 303 303 301 301 301 301 301 300 300 300 301 300 301 302 301 302 304 305 305 306 307 307 309 309 310 308 309 309 310 311 312 313 314
304 300 300 303 303 302 302 304 306 303 302 302 301 301 302 301 300 299 299 299 299 300 300 300 301 300 302 304 304 298 305 306 307 307 308 309 310 310 309 309 309 312 312 312 312
Wind_Speed
12 13 15 18 18 18 19 19 19 20 20 21 22 22 20 23 24 7 3 4 9 16 18 17 16 20 19 5 6 2 1 4 7 7 9 12 11 10 3 3 3 6 10 27 38
11 13 14 15 17 18 19 20 20 19 20 22 22 22 20 23 19 5 7 10 13 13 13 12 10 15 6 6 5 4 3 7 6 14 17 11 13 15 4 6 5 11 20 39 39
12 13 14 15 16 17 18 19 20 21 22 23 24 23 23 15 3 3 11 13 10 8 16 13 14 7 6 5 4 5 10 13 17 18 14 12 13 11 10 5 13 26 26 25 30
13 14 15 15 16 16 17 19 20 21 22 23 23 22 14 3 5 4 13 14 17 16 18 12 7 3 4 5 5 9 13 12 18 15 12 12 9 15 5 7 12 26 31 27 26
13 15 16 18 18 18 19 19 19 21 20 18 17 15 7 3 5 14 19 17 15 18 12 7 8 6 5 6 8 14 14 15 21 19 14 12 9 10 10 13 7 18 21 25 27
14 15 17 18 18 19 19 21 20 18 14 13 12 9 3 3 15 17 18 18 15 12 17 11 5 11 9 7 7 9 16 14 17 20 17 13 14 5 16 9 10 14 20 21 21
14 15 18 18 17 18 20 18 18 11 11 10 8 5 3 4 11 14 20 19 19 19 5 13 18 5 10 11 9 13 13 13 17 10 15 9 17 9 15 7 11 4 15 21 21
16 17 19 19 18 19 21 19 13 4 8 6 6 2 3 3 13 21 20 20 18 20 18 17 13 8 3 7 8 6 8 5 12 14 14 8 19 16 11 9 13 10 6 18 21
17 17 19 21 18 21 24 17 9 2 4 4 3 1 3 8 21 19 13 11 18 17 15 15 10 7 5 6 6 6 7 9 10 10 10 12 15 13 10 9 13 15 10 10 17
15 18 20 19 17 22 27 7 3 4 5 4 11 3 3 7 17 16 13 11 10 9 9 3 3 5 3 5 12 7 10 10 15 5 14 20 16 12 17 12 15 10 14 15 10
14 17 18 15 14 21 27 4 7 5 8 4 4 2 4 11 14 11 14 14 3 6 6 6 6 12 10 14 19 17 21 22 15 9 18 18 18 21 16 19 19 13 11 18 14
15 17 18 13 12 14 24 9 6 2 5 11 8 7 5 6 6 7 13 6 6 8 9 8 13 15 14 18 19 21 23 26 22 19 18 14 11 13 18 21 22 21 13 12 20
15 17 18 11 9 12 19 17 9 5 2 4 3 3 5 6 5 5 7 5 3 6 6 7 16 23 22 21 20 23 23 21 21 16 22 17 19 16 18 20 17 20 18 9 15
15 17 16 15 4 20 13 14 9 6 3 4 4 4 6 5 4 4 2 3 5 8 10 7 8 19 24 23 20 23 19 22 22 16 15 2 15 14 14 17 9 18 10 8 9
14 17 12 8 6 9 14 13 9 2 6 5 2 0 6 7 10 2 6 2 2 7 4 11 16 17 21 20 23 17 15 21 23 15 15 11 7 10 12 20 8 8 8 8 9
14 12 11 8 8 11 14 7 5 4 1 0 3 9 11 9 7 3 6 4 3 3 7 11 12 15 21 16 22 25 22 20 16 15 16 16 14 12 10 11 7 5 9 10 6
10 7 8 8 7 18 12 5 4 6 8 5 7 9 9 9 5 12 11 9 2 8 14 20 10 15 8 15 19 19 13 8 10 11 11 14 12 12 7 11 9 11 8 8 9
8 6 3 4 15 11 9 3 8 6 5 8 9 14 2 13 8 9 8 5 7 10 10 8 15 17 20 16 14 10 7 6 10 9 12 15 13 5 11 14 18 17 17 8 9
9 1 3 11 7 9 2 6 6 3 5 7 10 5 6 14 8 10 9 6 6 11 8 7 9 24 10 16 4 8 10 11 9 7 9 4 11 15 17 19 16 16 18 9 9
8 6 3 9 10 5 4 3 1 2 5 4 3 5 7 9 7 12 7 7 7 8 5 5 11 8 22 8 8 11 8 6 2 3 6 5 7 8 7 21 16 17 18 13 7
4 0 4 8 7 4 3 4 3 7 4 4 4 5 5 8 9 9 5 4 7 8 9 5 3 13 13 7 16 15 8 6 1 3 3 4 5 8 6 17 12 18 15 18 15
4 2 6 7 4 2 2 4 3 2 4 3 3 4 4 8 5 5 4 9 2 6 6 4 4 5 18 21 12 9 10 12 4 7 4 3 7 19 15 15 18 13 14 15 10
0 1 1 3 3 0 4 4 2 2 3 3 3 3 5 5 4 5 7 12 8 13 10 6 3 7 13 5 9 8 9 8 5 3 4 4 7 15 21 10 13 11 13 11 13
3 1 3 4 2 1 1 3 2 5 2 1 3 5 4 5 6 6 11 7 13 14 16 7 5 6 6 11 14 14 14 11 6 3 6 6 19 18 22 14 11 7 9 13 10
2 3 4 2 3 2 2 1 3 3 5 1 1 4 6 4 8 9 9 17 11 10 6 4 3 6 13 15 16 18 20 16 13 10 7 10 17 17 13 13 12 14 7 9 16
4 2 2 1 7 7 5 3 3 5 1 2 4 6 6 4 6 14 12 7 6 3 6 8 4 13 14 13 13 18 18 19 17 15 13 12 15 14 14 15 19 16 19 19 18
4 1 3 3 2 4 5 5 7 1 2 1 5 4 5 9 5 5 7 10 11 13 12 7 3 2 5 6 13 8 9 14 12 12 9 5 3 14 17 15 14 14 16 17 17
Wind_Direction
13 9 5 0 359 356 354 351 350 349 345 339 338 340 341 333 328 1 284 296 313 318 323 328 324 319 297 242 211 37 298 251 253 253 276 330 353 300 257 158 171 193 139 146 148
9 5 359 354 348 346 347 349 347 344 339 335 334 341 341 336 334 329 357 352 316 322 341 339 318 317 321 299 290 150 196 240 233 270 289 312 333 319 256 264 70 81 112 139 146
1 355 350 346 342 338 338 340 338 338 336 336 337 340 335 337 257 62 23 20 5 358 341 305 281 291 273 274 256 259 237 265 267 275 287 288 308 312 328 262 139 135 142 150 150
357 352 345 341 337 335 333 334 333 336 332 332 335 341 350 36 66 33 25 18 356 340 332 319 301 242 263 250 265 270 270 274 279 271 279 288 300 308 338 280 144 150 157 158 160
353 347 341 339 336 334 335 335 335 332 330 330 337 349 8 307 53 0 0 351 345 341 324 319 326 320 285 284 307 252 261 269 279 280 276 282 276 264 297 302 82 157 158 169 168
349 344 341 336 334 338 340 339 339 338 340 337 340 356 333 93 360 18 8 352 340 332 323 327 290 315 288 274 266 313 307 269 265 270 269 262 265 257 269 298 323 162 170 175 176
347 344 342 339 343 345 344 344 343 345 351 352 359 38 316 271 356 7 351 341 335 333 254 289 304 332 337 323 309 313 304 307 268 257 269 259 271 240 263 277 285 279 189 181 183
347 342 340 341 346 343 339 336 332 330 20 31 40 59 275 18 356 352 339 329 328 324 320 314 263 286 261 277 317 299 291 255 252 259 264 207 252 263 250 256 269 268 189 197 191
347 343 340 344 351 348 347 339 319 251 15 26 3 198 49 358 357 336 333 314 329 320 314 298 282 213 295 300 300 237 253 256 279 229 247 216 246 257 244 240 239 264 259 186 211
345 346 345 356 2 356 358 11 77 33 315 292 282 318 10 343 332 329 355 343 328 318 332 305 279 222 196 214 236 227 256 264 250 291 238 252 258 234 251 242 244 232 254 259 194
345 346 351 1 11 14 8 59 11 16 24 359 318 332 300 328 321 340 359 337 357 357 327 283 275 239 239 226 252 261 275 275 273 252 254 258 260 249 236 239 236 235 224 237 246
348 352 357 1 5 24 44 64 108 167 331 287 230 216 298 276 285 302 20 40 12 350 328 331 284 271 267 243 254 254 253 259 277 275 285 285 279 272 245 236 225 227 225 230 241
349 354 356 353 14 21 52 40 26 6 223 290 179 229 271 251 278 353 33 343 304 310 333 299 297 304 296 277 250 255 259 266 263 271 273 274 284 289 285 234 228 217 228 217 233
351 354 359 358 359 349 58 4 7 356 91 140 207 189 284 264 211 98 346 218 345 324 312 271 291 297 299 290 285 254 255 265 269 271 256 219 276 277 293 266 214 212 218 225 243
350 350 4 14 349 14 340 336 340 331 65 323 81 283 303 352 293 246 259 174 29 331 341 277 299 292 287 295 297 303 306 252 260 267 271 238 262 264 272 289 236 247 269 273 263
348 359 5 16 327 339 320 327 318 51 353 27 56 359 347 321 294 343 17 23 169 321 297 284 277 272 262 277 292 293 294 293 260 249 257 255 229 249 263 265 276 228 259 266 289
349 358 359 351 331 323 345 333 48 87 271 25 347 333 298 282 323 21 356 352 33 353 348 326 322 330 218 269 283 271 301 283 259 247 253 249 232 227 252 267 281 310 293 341 324
329 328 68 356 316 353 340 61 70 262 27 5 335 300 298 17 9 345 322 337 46 17 322 342 324 14 318 313 318 297 270 279 277 257 271 262 243 247 256 267 279 287 294 287 297
313 319 3 320 14 352 26 53 177 351 19 337 319 358 7 357 345 344 353 30 49 27 3 311 300 307 330 332 281 300 271 288 304 293 274 252 299 290 231 256 273 275 273 272 264
328 286 1 354 344 353 70 148 253 26 13 333 314 27 349 338 352 354 321 56 1 353 2 309 299 308 330 304 331 347 339 275 255 291 277 269 230 275 255 244 260 273 286 290 291
301 89 348 341 356 42 113 215 296 19 339 9 3 311 325 333 354 330 300 76 6 348 15 351 292 305 326 10 330 326 20 2 290 130 196 322 296 215 316 356 7 22 17 19 13
266 41 336 7 50 27 140 348 342 284 357 302 277 289 347 352 310 319 291 356 319 315 353 341 271 288 301 289 47 77 57 34 7 351 312 269 263 280 350 344 8 348 2 353 7
39 111 340 38 127 173 262 255 272 291 343 20 335 360 355 331 311 289 346 340 6 4 357 339 339 325 321 356 5 43 3 5 309 220 281 340 278 338 322 351 338 338 342 348 343
109 119 333 34 165 189 195 302 290 148 237 280 305 315 309 320 299 305 315 311 341 327 319 297 223 225 261 292 310 314 321 313 256 259 295 273 287 309 311 326 322 321 330 317 317
64 227 190 192 282 230 316 305 314 283 167 151 269 336 336 320 308 277 316 319 329 318 334 348 293 316 294 307 311 304 302 313 307 292 270 285 289 304 301 326 336 339 316 321 334
140 146 294 236 145 171 190 227 243 279 243 182 301 320 344 315 285 304 318 328 268 357 12 334 296 325 303 291 282 290 289 287 284 285 277 289 289 347 359 20 1 40 29 23 17
237 151 94 281 240 154 205 199 220 170 337 239 259 286 298 286 299 292 278 274 264 279 281 261 258 323 270 301 325 315 237 249 268 286 288 293 316 347 342 338 336 33 24 30 16